Time,TemperatureF,DewpointF,PressureIn,WindDirection,WindDirectionDegrees,WindSpeedMPH,WindSpeedGustMPH,Humidity,HourlyPrecipIn,Conditions,Clouds,dailyrainin,SoftwareType,DateUTC
2013-02-09 00:00:00,35.5,34.2,30.03,NNW,346,0.0,0.0,95,0.00,,,0.00,LWC V1.00 B64,2013-02-09 08:00:00,
2013-02-09 00:05:00,35.3,34.0,30.03,NNW,346,0.0,0.0,95,0.00,,,0.00,LWC V1.00 B64,2013-02-09 08:05:00,
2013-02-09 00:10:00,35.2,33.9,30.03,NNW,346,0.0,0.0,95,0.00,,,0.00,LWC V1.00 B64,2013-02-09 08:10:00,
2013-02-09 00:15:00,35.0,33.7,30.03,NNW,346,0.0,0.0,95,0.00,,,0.00,LWC V1.00 B64,2013-02-09 08:15:00,
2013-02-09 00:20:00,35.0,33.7,30.03,NNW,345,0.0,0.0,95,0.00,,,0.00,LWC V1.00 B64,2013-02-09 08:20:00,
2013-02-09 00:25:00,35.1,33.8,30.03,NNW,346,0.0,0.0,95,0.00,,,0.00,LWC V1.00 B64,2013-02-09 08:25:00,
2013-02-09 00:30:00,35.3,34.0,30.03,NNW,346,0.0,0.0,95,0.00,,,0.00,LWC V1.00 B64,2013-02-09 08:30:00,
2013-02-09 00:35:00,35.4,34.4,30.03,NNW,346,0.0,0.0,96,0.00,,,0.00,LWC V1.00 B64,2013-02-09 08:35:00,
2013-02-09 00:40:00,35.3,34.0,30.04,NNW,346,0.0,0.0,95,0.00,,,0.00,LWC V1.00 B64,2013-02-09 08:40:00,
2013-02-09 00:45:00,35.2,33.9,30.04,NNW,346,0.0,0.0,95,0.00,,,0.00,LWC V1.00 B64,2013-02-09 08:45:00,
2013-02-09 00:50:00,35.1,33.8,30.04,NNW,346,0.0,0.0,95,0.00,,,0.00,LWC V1.00 B64,2013-02-09 08:50:00,
2013-02-09 00:55:00,35.0,33.7,30.04,NNW,346,0.0,0.0,95,0.00,,,0.00,LWC V1.00 B64,2013-02-09 08:55:00,
2013-02-09 01:00:00,34.9,33.6,30.04,NNW,345,0.0,0.0,95,0.00,,,0.00,LWC V1.00 B64,2013-02-09 09:00:00,
2013-02-09 01:05:00,34.7,33.4,30.04,NNW,346,0.0,0.0,95,0.00,,,0.00,LWC V1.00 B64,2013-02-09 09:05:00,
2013-02-09 01:10:00,34.6,33.3,30.04,NNW,346,0.0,0.0,95,0.00,,,0.00,LWC V1.00 B64,2013-02-09 09:10:00,
2013-02-09 01:15:00,34.5,33.2,30.04,NNW,345,0.0,0.0,95,0.00,,,0.00,LWC V1.00 B64,2013-02-09 09:15:00,
2013-02-09 01:20:00,34.4,33.1,30.04,NNW,346,0.0,0.0,95,0.00,,,0.00,LWC V1.00 B64,2013-02-09 09:20:00,
2013-02-09 01:25:00,34.3,33.0,30.04,NNW,346,0.0,0.0,95,0.00,,,0.00,LWC V1.00 B64,2013-02-09 09:25:00,
2013-02-09 01:30:00,34.3,33.3,30.04,NNW,346,0.0,0.0,96,0.00,,,0.00,LWC V1.00 B64,2013-02-09 09:30:00,
2013-02-09 01:35:00,34.2,33.2,30.04,NNW,346,0.0,0.0,96,0.00,,,0.00,LWC V1.00 B64,2013-02-09 09:35:00,
2013-02-09 01:40:00,34.1,32.8,30.04,NNW,346,0.0,0.0,95,0.00,,,0.00,LWC V1.00 B64,2013-02-09 09:40:00,
2013-02-09 01:45:00,34.0,32.7,30.04,NNW,346,0.0,0.0,95,0.00,,,0.00,LWC V1.00 B64,2013-02-09 09:45:00,
2013-02-09 01:50:00,33.8,32.5,30.05,NNW,346,0.0,0.0,95,0.00,,,0.00,LWC V1.00 B64,2013-02-09 09:50:00,
2013-02-09 01:55:00,33.7,32.7,30.04,NNW,347,0.0,1.0,96,0.00,,,0.00,LWC V1.00 B64,2013-02-09 09:55:00,
2013-02-09 02:00:00,34.0,33.0,30.04,NNW,347,0.0,0.0,96,0.00,,,0.00,LWC V1.00 B64,2013-02-09 10:00:00,
2013-02-09 02:05:00,34.2,33.2,30.04,NNW,347,0.0,0.0,96,0.00,,,0.00,LWC V1.00 B64,2013-02-09 10:05:00,
2013-02-09 02:10:00,34.5,33.5,30.04,NNW,347,0.0,0.0,96,0.00,,,0.00,LWC V1.00 B64,2013-02-09 10:10:00,
2013-02-09 02:15:00,34.4,33.4,30.04,NNW,347,0.0,1.0,96,0.00,,,0.00,LWC V1.00 B64,2013-02-09 10:15:00,
2013-02-09 02:20:00,34.1,32.8,30.04,NNW,347,0.0,0.0,95,0.00,,,0.00,LWC V1.00 B64,2013-02-09 10:20:00,
2013-02-09 02:25:00,33.8,32.5,30.04,NNW,346,0.0,0.0,95,0.00,,,0.00,LWC V1.00 B64,2013-02-09 10:25:00,
2013-02-09 02:30:00,33.6,32.6,30.04,NNW,347,0.0,0.0,96,0.00,,,0.00,LWC V1.00 B64,2013-02-09 10:30:00,
2013-02-09 02:35:00,33.4,32.4,30.05,NNW,347,0.0,0.0,96,0.00,,,0.00,LWC V1.00 B64,2013-02-09 10:35:00,
2013-02-09 02:40:00,33.3,32.3,30.05,NNW,347,0.0,0.0,96,0.00,,,0.00,LWC V1.00 B64,2013-02-09 10:40:00,
2013-02-09 02:45:00,33.1,32.1,30.05,NNW,346,0.0,0.0,96,0.00,,,0.00,LWC V1.00 B64,2013-02-09 10:45:00,
2013-02-09 02:50:00,33.1,32.1,30.04,NNW,347,0.0,0.0,96,0.00,,,0.00,LWC V1.00 B64,2013-02-09 10:50:00,
2013-02-09 02:55:00,33.0,32.0,30.04,NNW,347,0.0,0.0,96,0.00,,,0.00,LWC V1.00 B64,2013-02-09 10:55:00,
2013-02-09 03:00:00,32.9,31.9,30.05,NNW,347,0.0,0.0,96,0.00,,,0.00,LWC V1.00 B64,2013-02-09 11:00:00,
2013-02-09 03:05:00,32.8,31.8,30.04,NNW,346,0.0,0.0,96,0.00,,,0.00,LWC V1.00 B64,2013-02-09 11:05:00,
2013-02-09 03:10:00,32.8,31.8,30.05,NNW,346,0.0,1.0,96,0.00,,,0.00,LWC V1.00 B64,2013-02-09 11:10:00,
2013-02-09 03:15:00,32.9,31.9,30.04,NNW,347,0.0,0.0,96,0.00,,,0.00,LWC V1.00 B64,2013-02-09 11:15:00,
2013-02-09 03:20:00,32.8,31.8,30.04,NNW,347,0.0,0.0,96,0.00,,,0.00,LWC V1.00 B64,2013-02-09 11:20:00,
2013-02-09 03:25:00,32.8,31.8,30.05,NNW,346,0.0,0.0,96,0.00,,,0.00,LWC V1.00 B64,2013-02-09 11:25:00,
2013-02-09 03:30:00,32.7,31.7,30.04,NNW,347,0.0,1.0,96,0.00,,,0.00,LWC V1.00 B64,2013-02-09 11:30:00,
2013-02-09 03:35:00,32.5,31.5,30.04,NNW,347,0.0,0.0,96,0.00,,,0.00,LWC V1.00 B64,2013-02-09 11:35:00,
2013-02-09 03:40:00,32.4,31.4,30.05,NNW,346,0.0,0.0,96,0.00,,,0.00,LWC V1.00 B64,2013-02-09 11:40:00,
2013-02-09 03:45:00,32.3,31.3,30.04,NNW,347,0.0,0.0,96,0.00,,,0.00,LWC V1.00 B64,2013-02-09 11:45:00,
2013-02-09 03:50:00,32.3,31.3,30.04,NNW,347,0.0,0.0,96,0.00,,,0.00,LWC V1.00 B64,2013-02-09 11:50:00,
2013-02-09 03:55:00,32.3,31.3,30.04,NNW,347,0.0,0.0,96,0.00,,,0.00,LWC V1.00 B64,2013-02-09 11:55:00,
2013-02-09 04:00:00,32.2,31.2,30.04,NNW,347,0.0,0.0,96,0.00,,,0.00,LWC V1.00 B64,2013-02-09 12:00:00,
2013-02-09 04:05:00,32.1,31.1,30.04,NNW,347,0.0,0.0,96,0.00,,,0.00,LWC V1.00 B64,2013-02-09 12:05:00,
2013-02-09 04:10:00,32.2,31.2,30.04,NNW,347,0.0,0.0,96,0.00,,,0.00,LWC V1.00 B64,2013-02-09 12:10:00,
2013-02-09 04:15:00,32.2,31.2,30.04,NNW,346,0.0,0.0,96,0.00,,,0.00,LWC V1.00 B64,2013-02-09 12:15:00,
2013-02-09 04:20:00,32.2,31.2,30.04,NNW,346,0.0,0.0,96,0.00,,,0.00,LWC V1.00 B64,2013-02-09 12:20:00,
2013-02-09 04:25:00,32.2,31.2,30.04,NNW,347,0.0,0.0,96,0.00,,,0.00,LWC V1.00 B64,2013-02-09 12:25:00,
2013-02-09 04:30:00,32.3,31.3,30.05,NNW,347,0.0,0.0,96,0.00,,,0.00,LWC V1.00 B64,2013-02-09 12:30:00,
2013-02-09 04:35:00,32.1,31.1,30.05,NNW,347,0.0,0.0,96,0.00,,,0.00,LWC V1.00 B64,2013-02-09 12:35:00,
2013-02-09 04:40:00,31.9,30.9,30.04,NNW,347,0.0,0.0,96,0.00,,,0.00,LWC V1.00 B64,2013-02-09 12:40:00,
2013-02-09 04:45:00,31.8,30.8,30.05,NNW,346,0.0,0.0,96,0.00,,,0.00,LWC V1.00 B64,2013-02-09 12:45:00,
2013-02-09 04:50:00,31.9,30.9,30.05,NNW,346,0.0,1.0,96,0.00,,,0.00,LWC V1.00 B64,2013-02-09 12:50:00,
2013-02-09 04:55:00,31.9,30.9,30.05,NNW,346,0.0,0.0,96,0.00,,,0.00,LWC V1.00 B64,2013-02-09 12:55:00,
2013-02-09 05:00:00,31.7,30.7,30.05,NNW,347,0.0,0.0,96,0.00,,,0.00,LWC V1.00 B64,2013-02-09 13:00:00,
2013-02-09 05:05:00,31.7,30.7,30.05,NNW,347,0.0,0.0,96,0.00,,,0.00,LWC V1.00 B64,2013-02-09 13:05:00,
2013-02-09 05:10:00,31.7,30.7,30.05,NNW,347,0.0,0.0,96,0.00,,,0.00,LWC V1.00 B64,2013-02-09 13:10:00,
2013-02-09 05:15:00,31.6,30.6,30.05,NNW,346,0.0,0.0,96,0.00,,,0.00,LWC V1.00 B64,2013-02-09 13:15:00,
2013-02-09 05:20:00,31.6,30.6,30.05,NNW,346,0.0,0.0,96,0.00,,,0.00,LWC V1.00 B64,2013-02-09 13:20:00,
2013-02-09 05:25:00,31.5,30.5,30.05,NNW,347,0.0,0.0,96,0.00,,,0.00,LWC V1.00 B64,2013-02-09 13:25:00,
2013-02-09 05:30:00,31.4,30.4,30.05,NNW,347,0.0,0.0,96,0.00,,,0.00,LWC V1.00 B64,2013-02-09 13:30:00,
2013-02-09 05:35:00,31.2,30.2,30.05,NNW,346,0.0,1.0,96,0.00,,,0.00,LWC V1.00 B64,2013-02-09 13:35:00,
2013-02-09 05:40:00,31.3,30.3,30.05,NNW,347,0.0,1.0,96,0.00,,,0.00,LWC V1.00 B64,2013-02-09 13:40:00,
2013-02-09 05:45:00,31.2,30.2,30.05,NNW,347,0.0,0.0,96,0.00,,,0.00,LWC V1.00 B64,2013-02-09 13:45:00,
2013-02-09 05:50:00,31.2,30.2,30.05,NNW,346,0.0,0.0,96,0.00,,,0.00,LWC V1.00 B64,2013-02-09 13:50:00,
2013-02-09 05:55:00,31.2,30.2,30.05,NNW,347,0.0,0.0,96,0.00,,,0.00,LWC V1.00 B64,2013-02-09 13:55:00,
2013-02-09 06:00:00,31.1,30.1,30.05,NNW,347,0.0,0.0,96,0.00,,,0.00,LWC V1.00 B64,2013-02-09 14:00:00,
2013-02-09 06:05:00,31.1,30.1,30.05,NNW,347,0.0,0.0,96,0.00,,,0.00,LWC V1.00 B64,2013-02-09 14:05:00,
2013-02-09 06:10:00,31.2,30.2,30.05,NNW,346,0.0,0.0,96,0.00,,,0.00,LWC V1.00 B64,2013-02-09 14:10:00,
2013-02-09 06:15:00,31.1,30.1,30.05,NNW,346,0.0,0.0,96,0.00,,,0.00,LWC V1.00 B64,2013-02-09 14:15:00,
2013-02-09 06:20:00,31.1,30.1,30.05,NNW,347,0.0,0.0,96,0.00,,,0.00,LWC V1.00 B64,2013-02-09 14:20:00,
2013-02-09 06:25:00,31.1,30.1,30.05,NNW,346,0.0,0.0,96,0.00,,,0.00,LWC V1.00 B64,2013-02-09 14:25:00,
2013-02-09 06:30:00,31.0,30.0,30.05,NNW,346,0.0,0.0,96,0.00,,,0.00,LWC V1.00 B64,2013-02-09 14:30:00,
2013-02-09 06:35:00,31.0,30.0,30.05,NNW,346,0.0,1.0,96,0.00,,,0.00,LWC V1.00 B64,2013-02-09 14:35:00,
2013-02-09 06:40:00,30.9,29.9,30.05,NNW,346,0.0,0.0,96,0.00,,,0.00,LWC V1.00 B64,2013-02-09 14:40:00,
2013-02-09 06:45:00,31.0,30.0,30.05,NNW,346,0.0,0.0,96,0.00,,,0.00,LWC V1.00 B64,2013-02-09 14:45:00,
2013-02-09 06:50:00,30.9,29.9,30.05,NNW,346,0.0,0.0,96,0.00,,,0.00,LWC V1.00 B64,2013-02-09 14:50:00,
2013-02-09 06:55:00,30.8,29.8,30.05,NNW,346,0.0,0.0,96,0.00,,,0.00,LWC V1.00 B64,2013-02-09 14:55:00,
2013-02-09 07:00:00,30.9,29.9,30.05,NNW,346,0.0,0.0,96,0.00,,,0.00,LWC V1.00 B64,2013-02-09 15:00:00,
2013-02-09 07:05:00,30.8,29.8,30.05,NNW,346,0.0,0.0,96,0.00,,,0.00,LWC V1.00 B64,2013-02-09 15:05:00,
2013-02-09 07:10:00,30.7,29.7,30.06,NNW,346,0.0,0.0,96,0.00,,,0.00,LWC V1.00 B64,2013-02-09 15:10:00,
2013-02-09 07:15:00,30.6,29.6,30.06,NNW,346,0.0,0.0,96,0.00,,,0.00,LWC V1.00 B64,2013-02-09 15:15:00,
2013-02-09 07:20:00,30.4,29.4,30.05,NNW,346,0.0,0.0,96,0.00,,,0.00,LWC V1.00 B64,2013-02-09 15:20:00,
2013-02-09 07:25:00,30.3,29.3,30.06,NNW,346,0.0,0.0,96,0.00,,,0.00,LWC V1.00 B64,2013-02-09 15:25:00,
2013-02-09 07:30:00,30.4,29.4,30.07,NNW,346,0.0,0.0,96,0.00,,,0.00,LWC V1.00 B64,2013-02-09 15:30:00,
2013-02-09 07:35:00,30.3,29.3,30.07,NNW,346,0.0,0.0,96,0.00,,,0.00,LWC V1.00 B64,2013-02-09 15:35:00,
2013-02-09 07:40:00,30.3,29.3,30.07,NNW,346,0.0,0.0,96,0.00,,,0.00,LWC V1.00 B64,2013-02-09 15:40:00,
2013-02-09 07:45:00,30.3,29.3,30.07,NNW,346,0.0,0.0,96,0.00,,,0.00,LWC V1.00 B64,2013-02-09 15:45:00,
2013-02-09 07:50:00,30.5,29.8,30.07,NNW,346,0.0,0.0,97,0.00,,,0.00,LWC V1.00 B64,2013-02-09 15:50:00,
2013-02-09 07:55:00,30.8,30.1,30.06,NNW,346,0.0,0.0,97,0.00,,,0.00,LWC V1.00 B64,2013-02-09 15:55:00,
2013-02-09 08:00:00,30.9,30.2,30.06,NNW,346,0.0,0.0,97,0.00,,,0.00,LWC V1.00 B64,2013-02-09 16:00:00,
2013-02-09 08:05:00,31.1,30.4,30.07,NNW,346,0.0,0.0,97,0.00,,,0.00,LWC V1.00 B64,2013-02-09 16:05:00,
2013-02-09 08:10:00,31.7,30.9,30.07,NNW,346,0.0,1.0,97,0.00,,,0.00,LWC V1.00 B64,2013-02-09 16:10:00,
2013-02-09 08:15:00,32.7,31.9,30.07,NNW,344,0.0,1.0,97,0.00,,,0.00,LWC V1.00 B64,2013-02-09 16:15:00,
2013-02-09 08:20:00,33.3,32.5,30.07,NNW,344,0.0,1.0,97,0.00,,,0.00,LWC V1.00 B64,2013-02-09 16:20:00,
2013-02-09 08:25:00,33.8,33.0,30.07,NNW,344,0.0,0.0,97,0.00,,,0.00,LWC V1.00 B64,2013-02-09 16:25:00,
2013-02-09 08:30:00,34.3,33.5,30.07,NNW,344,0.0,0.0,97,0.00,,,0.00,LWC V1.00 B64,2013-02-09 16:30:00,
2013-02-09 08:35:00,35.2,34.4,30.07,NNW,344,0.0,1.0,97,0.00,,,0.00,LWC V1.00 B64,2013-02-09 16:35:00,
2013-02-09 08:40:00,35.8,35.0,30.07,NNW,344,0.0,0.0,97,0.00,,,0.00,LWC V1.00 B64,2013-02-09 16:40:00,
2013-02-09 08:45:00,36.5,35.7,30.07,NNW,344,0.0,1.0,97,0.00,,,0.00,LWC V1.00 B64,2013-02-09 16:45:00,
2013-02-09 08:50:00,36.8,36.0,30.07,NNW,344,0.0,0.0,97,0.00,,,0.00,LWC V1.00 B64,2013-02-09 16:50:00,
2013-02-09 08:55:00,37.1,36.3,30.07,NNW,344,0.0,0.0,97,0.00,,,0.00,LWC V1.00 B64,2013-02-09 16:55:00,
2013-02-09 09:00:00,37.3,36.5,30.07,NNW,344,0.0,0.0,97,0.00,,,0.00,LWC V1.00 B64,2013-02-09 17:00:00,
2013-02-09 09:05:00,37.8,37.0,30.08,NNW,344,0.0,1.0,97,0.00,,,0.00,LWC V1.00 B64,2013-02-09 17:05:00,
2013-02-09 09:10:00,38.7,37.9,30.07,NNW,344,0.0,1.0,97,0.00,,,0.00,LWC V1.00 B64,2013-02-09 17:10:00,
2013-02-09 09:15:00,39.0,38.2,30.08,NW,321,0.0,1.0,97,0.00,,,0.00,LWC V1.00 B64,2013-02-09 17:15:00,
2013-02-09 09:20:00,39.6,38.8,30.08,NW,321,0.0,1.0,97,0.00,,,0.00,LWC V1.00 B64,2013-02-09 17:20:00,
2013-02-09 09:25:00,40.3,39.5,30.08,NW,317,0.0,1.0,97,0.00,,,0.00,LWC V1.00 B64,2013-02-09 17:25:00,
2013-02-09 09:30:00,40.5,39.7,30.08,NW,315,0.0,0.0,97,0.00,,,0.00,LWC V1.00 B64,2013-02-09 17:30:00,
2013-02-09 09:35:00,41.0,40.2,30.08,NW,315,0.0,1.0,97,0.00,,,0.00,LWC V1.00 B64,2013-02-09 17:35:00,
2013-02-09 09:40:00,41.2,40.4,30.08,NW,315,0.0,1.0,97,0.00,,,0.00,LWC V1.00 B64,2013-02-09 17:40:00,
2013-02-09 09:45:00,41.7,40.9,30.08,NW,315,0.0,1.0,97,0.00,,,0.00,LWC V1.00 B64,2013-02-09 17:45:00,
2013-02-09 09:50:00,42.2,41.4,30.08,NW,314,0.0,1.0,97,0.00,,,0.00,LWC V1.00 B64,2013-02-09 17:50:00,
2013-02-09 09:55:00,42.7,41.9,30.08,NW,314,0.0,1.0,97,0.00,,,0.00,LWC V1.00 B64,2013-02-09 17:55:00,
2013-02-09 10:00:00,43.6,42.8,30.08,NW,315,0.0,2.0,97,0.00,,,0.00,LWC V1.00 B64,2013-02-09 18:00:00,
2013-02-09 10:05:00,44.6,43.5,30.08,NW,313,0.0,2.0,96,0.00,,,0.00,LWC V1.00 B64,2013-02-09 18:05:00,
2013-02-09 10:10:00,45.3,44.0,30.08,NW,309,0.0,3.0,95,0.00,,,0.00,LWC V1.00 B64,2013-02-09 18:10:00,
2013-02-09 10:15:00,45.9,44.3,30.08,NW,309,1.0,1.0,94,0.00,,,0.00,LWC V1.00 B64,2013-02-09 18:15:00,
2013-02-09 10:20:00,46.3,44.4,30.08,NW,309,0.0,1.0,93,0.00,,,0.00,LWC V1.00 B64,2013-02-09 18:20:00,
2013-02-09 10:25:00,46.8,44.6,30.08,NW,309,0.0,2.0,92,0.00,,,0.00,LWC V1.00 B64,2013-02-09 18:25:00,
2013-02-09 10:30:00,47.8,45.0,30.08,NW,309,0.0,2.0,90,0.00,,,0.00,LWC V1.00 B64,2013-02-09 18:30:00,
2013-02-09 10:35:00,48.9,45.2,30.08,NW,309,1.0,1.0,87,0.00,,,0.00,LWC V1.00 B64,2013-02-09 18:35:00,
2013-02-09 10:40:00,49.9,45.3,30.08,NW,307,0.0,3.0,84,0.00,,,0.00,LWC V1.00 B64,2013-02-09 18:40:00,
2013-02-09 10:45:00,50.8,45.2,30.08,NW,306,0.0,2.0,81,0.00,,,0.00,LWC V1.00 B64,2013-02-09 18:45:00,
2013-02-09 10:50:00,51.4,44.1,30.08,NW,306,0.0,2.0,76,0.00,,,0.00,LWC V1.00 B64,2013-02-09 18:50:00,
2013-02-09 10:55:00,51.9,43.5,30.08,NW,306,0.0,1.0,73,0.00,,,0.00,LWC V1.00 B64,2013-02-09 18:55:00,
2013-02-09 11:00:00,52.5,42.2,30.08,WNW,301,0.0,2.0,68,0.00,,,0.00,LWC V1.00 B64,2013-02-09 19:00:00,
2013-02-09 11:05:00,53.1,40.4,30.08,WNW,296,0.0,1.0,62,0.00,,,0.00,LWC V1.00 B64,2013-02-09 19:05:00,
2013-02-09 11:10:00,53.5,39.5,30.08,WNW,295,1.0,2.0,59,0.00,,,0.00,LWC V1.00 B64,2013-02-09 19:10:00,
2013-02-09 11:15:00,54.5,41.3,30.08,WNW,294,1.0,3.0,61,0.00,,,0.00,LWC V1.00 B64,2013-02-09 19:15:00,
2013-02-09 11:20:00,55.2,41.1,30.08,WNW,294,2.0,2.0,59,0.00,,,0.00,LWC V1.00 B64,2013-02-09 19:20:00,
2013-02-09 11:25:00,56.3,41.3,30.07,West,280,2.0,4.0,57,0.00,,,0.00,LWC V1.00 B64,2013-02-09 19:25:00,
2013-02-09 11:30:00,56.6,40.1,30.07,West,280,1.0,3.0,54,0.00,,,0.00,LWC V1.00 B64,2013-02-09 19:30:00,
2013-02-09 11:35:00,56.6,40.1,30.08,West,280,2.0,3.0,54,0.00,,,0.00,LWC V1.00 B64,2013-02-09 19:35:00,
2013-02-09 11:40:00,56.6,40.1,30.08,West,280,1.0,2.0,54,0.00,,,0.00,LWC V1.00 B64,2013-02-09 19:40:00,
2013-02-09 11:45:00,56.9,39.5,30.07,West,279,0.0,1.0,52,0.00,,,0.00,LWC V1.00 B64,2013-02-09 19:45:00,
2013-02-09 11:50:00,57.4,38.9,30.07,West,279,0.0,2.0,50,0.00,,,0.00,LWC V1.00 B64,2013-02-09 19:50:00,
2013-02-09 11:55:00,57.9,37.8,30.07,West,279,0.0,2.0,47,0.00,,,0.00,LWC V1.00 B64,2013-02-09 19:55:00,
2013-02-09 12:00:00,58.1,38.0,30.07,West,263,0.0,2.0,47,0.00,,,0.00,LWC V1.00 B64,2013-02-09 20:00:00,
2013-02-09 12:05:00,58.5,36.7,30.06,West,263,1.0,2.0,44,0.00,,,0.00,LWC V1.00 B64,2013-02-09 20:05:00,
2013-02-09 12:10:00,58.7,36.8,30.06,West,263,0.0,2.0,44,0.00,,,0.00,LWC V1.00 B64,2013-02-09 20:10:00,
2013-02-09 12:15:00,59.1,37.8,30.07,West,263,0.0,0.0,45,0.00,,,0.00,LWC V1.00 B64,2013-02-09 20:15:00,
2013-02-09 12:20:00,59.8,38.4,30.06,West,263,2.0,2.0,45,0.00,,,0.00,LWC V1.00 B64,2013-02-09 20:20:00,
2013-02-09 12:25:00,60.1,34.4,30.06,West,264,2.0,3.0,38,0.00,,,0.00,LWC V1.00 B64,2013-02-09 20:25:00,
2013-02-09 12:30:00,59.1,33.5,30.06,NW,321,3.0,3.0,38,0.00,,,0.00,LWC V1.00 B64,2013-02-09 20:30:00,
2013-02-09 12:35:00,58.1,32.0,30.06,North,355,3.0,6.0,37,0.00,,,0.00,LWC V1.00 B64,2013-02-09 20:35:00,
2013-02-09 12:40:00,57.8,32.4,30.06,NNW,340,0.0,2.0,38,0.00,,,0.00,LWC V1.00 B64,2013-02-09 20:40:00,
2013-02-09 12:45:00,57.5,38.0,30.06,NNW,336,4.0,7.0,48,0.00,,,0.00,LWC V1.00 B64,2013-02-09 20:45:00,
2013-02-09 12:50:00,56.8,40.8,30.06,North,5,6.0,9.0,55,0.00,,,0.00,LWC V1.00 B64,2013-02-09 20:50:00,
2013-02-09 12:55:00,56.0,41.9,30.06,North,355,5.0,9.0,59,0.00,,,0.00,LWC V1.00 B64,2013-02-09 20:55:00,
2013-02-09 13:00:00,55.8,42.6,30.06,North,9,0.0,5.0,61,0.00,,,0.00,LWC V1.00 B64,2013-02-09 21:00:00,
2013-02-09 13:05:00,56.4,41.8,30.06,NW,323,3.0,4.0,58,0.00,,,0.00,LWC V1.00 B64,2013-02-09 21:05:00,
2013-02-09 13:10:00,55.9,40.9,30.06,NNW,333,0.0,6.0,57,0.00,,,0.00,LWC V1.00 B64,2013-02-09 21:10:00,
2013-02-09 13:15:00,55.9,41.3,30.06,NNW,345,8.0,10.0,58,0.00,,,0.00,LWC V1.00 B64,2013-02-09 21:15:00,
2013-02-09 13:20:00,56.1,42.4,30.06,NW,321,6.0,7.0,60,0.00,,,0.00,LWC V1.00 B64,2013-02-09 21:20:00,
2013-02-09 13:25:00,56.0,42.3,30.05,North,355,3.0,10.0,60,0.00,,,0.00,LWC V1.00 B64,2013-02-09 21:25:00,
2013-02-09 13:30:00,56.3,43.4,30.05,North,5,3.0,6.0,62,0.00,,,0.00,LWC V1.00 B64,2013-02-09 21:30:00,
2013-02-09 13:35:00,56.0,41.4,30.05,NNW,336,3.0,7.0,58,0.00,,,0.00,LWC V1.00 B64,2013-02-09 21:35:00,
2013-02-09 13:40:00,56.2,42.1,30.05,NNW,344,0.0,4.0,59,0.00,,,0.00,LWC V1.00 B64,2013-02-09 21:40:00,
2013-02-09 13:45:00,56.7,42.5,30.05,North,5,0.0,5.0,59,0.00,,,0.00,LWC V1.00 B64,2013-02-09 21:45:00,
2013-02-09 13:50:00,56.9,42.7,30.04,NNE,19,0.0,3.0,59,0.00,,,0.00,LWC V1.00 B64,2013-02-09 21:50:00,
2013-02-09 13:55:00,56.7,42.1,30.04,NNW,342,4.0,6.0,58,0.00,,,0.00,LWC V1.00 B64,2013-02-09 21:55:00,
2013-02-09 14:00:00,56.0,41.9,30.04,North,350,3.0,7.0,59,0.00,,,0.00,LWC V1.00 B64,2013-02-09 22:00:00,
2013-02-09 14:05:00,55.7,41.6,30.04,NW,325,5.0,7.0,59,0.00,,,0.00,LWC V1.00 B64,2013-02-09 22:05:00,
2013-02-09 14:10:00,55.8,41.2,30.04,NW,322,3.0,4.0,58,0.00,,,0.00,LWC V1.00 B64,2013-02-09 22:10:00,
2013-02-09 14:15:00,55.5,41.8,30.04,NNW,330,7.0,7.0,60,0.00,,,0.00,LWC V1.00 B64,2013-02-09 22:15:00,
2013-02-09 14:20:00,55.4,41.3,30.04,North,351,9.0,11.0,59,0.00,,,0.00,LWC V1.00 B64,2013-02-09 22:20:00,
2013-02-09 14:25:00,54.6,41.4,30.04,NNE,13,3.0,5.0,61,0.00,,,0.00,LWC V1.00 B64,2013-02-09 22:25:00,
2013-02-09 14:30:00,54.8,42.0,30.04,NNW,336,3.0,5.0,62,0.00,,,0.00,LWC V1.00 B64,2013-02-09 22:30:00,
2013-02-09 14:35:00,55.1,41.9,30.05,NNW,332,2.0,5.0,61,0.00,,,0.00,LWC V1.00 B64,2013-02-09 22:35:00,
2013-02-09 14:40:00,55.7,40.2,30.05,West,273,0.0,6.0,56,0.00,,,0.00,LWC V1.00 B64,2013-02-09 22:40:00,
2013-02-09 14:45:00,55.1,41.0,30.04,NNW,327,4.0,6.0,59,0.00,,,0.00,LWC V1.00 B64,2013-02-09 22:45:00,
2013-02-09 14:50:00,54.9,40.8,30.04,NNW,334,4.0,8.0,59,0.00,,,0.00,LWC V1.00 B64,2013-02-09 22:50:00,
2013-02-09 14:55:00,54.6,40.6,30.04,NW,325,5.0,6.0,59,0.00,,,0.00,LWC V1.00 B64,2013-02-09 22:55:00,
2013-02-09 15:00:00,54.6,41.0,30.05,NNW,327,0.0,2.0,60,0.00,,,0.00,LWC V1.00 B64,2013-02-09 23:00:00,
2013-02-09 15:05:00,54.9,40.4,30.05,NNW,341,3.0,6.0,58,0.00,,,0.00,LWC V1.00 B64,2013-02-09 23:05:00,
2013-02-09 15:10:00,55.7,39.8,30.05,NNW,333,1.0,4.0,55,0.00,,,0.00,LWC V1.00 B64,2013-02-09 23:10:00,
2013-02-09 15:15:00,56.7,40.7,30.05,NNW,331,2.0,4.0,55,0.00,,,0.00,LWC V1.00 B64,2013-02-09 23:15:00,
2013-02-09 15:20:00,55.8,39.4,30.05,NW,318,5.0,5.0,54,0.00,,,0.00,LWC V1.00 B64,2013-02-09 23:20:00,
2013-02-09 15:25:00,55.6,39.7,30.05,North,355,6.0,7.0,55,0.00,,,0.00,LWC V1.00 B64,2013-02-09 23:25:00,
2013-02-09 15:30:00,55.0,39.6,30.05,North,0,6.0,9.0,56,0.00,,,0.00,LWC V1.00 B64,2013-02-09 23:30:00,
2013-02-09 15:35:00,54.3,39.4,30.05,North,5,9.0,10.0,57,0.00,,,0.00,LWC V1.00 B64,2013-02-09 23:35:00,
2013-02-09 15:40:00,53.6,40.1,30.05,NNW,341,6.0,10.0,60,0.00,,,0.00,LWC V1.00 B64,2013-02-09 23:40:00,
2013-02-09 15:45:00,53.3,39.8,30.05,NNW,348,5.0,9.0,60,0.00,,,0.00,LWC V1.00 B64,2013-02-09 23:45:00,
2013-02-09 15:50:00,53.3,39.8,30.05,North,5,3.0,9.0,60,0.00,,,0.00,LWC V1.00 B64,2013-02-09 23:50:00,
2013-02-09 15:55:00,53.4,39.9,30.05,NNW,348,5.0,6.0,60,0.00,,,0.00,LWC V1.00 B64,2013-02-09 23:55:00,
2013-02-09 16:00:00,53.2,38.8,30.05,North,350,7.0,8.0,58,0.00,,,0.00,LWC V1.00 B64,2013-02-10 00:00:00,
2013-02-09 16:05:00,53.1,39.2,30.05,NNE,14,6.0,7.0,59,0.00,,,0.00,LWC V1.00 B64,2013-02-10 00:05:00,
2013-02-09 16:10:00,52.8,39.3,30.05,North,5,3.0,7.0,60,0.00,,,0.00,LWC V1.00 B64,2013-02-10 00:10:00,
2013-02-09 16:15:00,52.6,38.2,30.05,NW,319,5.0,9.0,58,0.00,,,0.00,LWC V1.00 B64,2013-02-10 00:15:00,
2013-02-09 16:20:00,52.6,39.5,30.05,NNW,346,5.0,6.0,61,0.00,,,0.00,LWC V1.00 B64,2013-02-10 00:20:00,
2013-02-09 16:25:00,52.5,39.0,30.05,NNW,338,6.0,6.0,60,0.00,,,0.00,LWC V1.00 B64,2013-02-10 00:25:00,
2013-02-09 16:30:00,52.3,38.0,30.06,NNW,348,2.0,9.0,58,0.00,,,0.00,LWC V1.00 B64,2013-02-10 00:30:00,
2013-02-09 16:35:00,52.2,37.4,30.06,North,355,5.0,8.0,57,0.00,,,0.00,LWC V1.00 B64,2013-02-10 00:35:00,
2013-02-09 16:40:00,52.1,37.3,30.05,North,0,5.0,6.0,57,0.00,,,0.00,LWC V1.00 B64,2013-02-10 00:40:00,
2013-02-09 16:45:00,51.9,38.0,30.05,North,355,2.0,6.0,59,0.00,,,0.00,LWC V1.00 B64,2013-02-10 00:45:00,
2013-02-09 16:50:00,51.8,37.9,30.05,NNW,348,5.0,6.0,59,0.00,,,0.00,LWC V1.00 B64,2013-02-10 00:50:00,
2013-02-09 16:55:00,51.6,37.3,30.05,NNW,341,0.0,5.0,58,0.00,,,0.00,LWC V1.00 B64,2013-02-10 00:55:00,
2013-02-09 17:00:00,51.5,38.1,30.05,NNW,342,2.0,4.0,60,0.00,,,0.00,LWC V1.00 B64,2013-02-10 01:00:00,
2013-02-09 17:05:00,51.3,38.3,30.05,North,351,0.0,1.0,61,0.00,,,0.00,LWC V1.00 B64,2013-02-10 01:05:00,
2013-02-09 17:10:00,51.1,38.5,30.05,North,351,0.0,0.0,62,0.00,,,0.00,LWC V1.00 B64,2013-02-10 01:10:00,
2013-02-09 17:15:00,50.9,38.3,30.05,North,350,0.0,1.0,62,0.00,,,0.00,LWC V1.00 B64,2013-02-10 01:15:00,
2013-02-09 17:20:00,50.6,39.3,30.05,North,351,0.0,0.0,65,0.00,,,0.00,LWC V1.00 B64,2013-02-10 01:20:00,
2013-02-09 17:26:00,50.3,39.4,30.05,North,351,0.0,0.0,66,0.00,,,0.00,LWC V1.00 B64,2013-02-10 01:26:00,
2013-02-09 17:31:00,49.8,39.3,30.06,North,351,0.0,0.0,67,0.00,,,0.00,LWC V1.00 B64,2013-02-10 01:31:00,
2013-02-09 17:36:00,49.2,38.3,30.06,North,351,0.0,0.0,66,0.00,,,0.00,LWC V1.00 B64,2013-02-10 01:36:00,
2013-02-09 17:41:00,48.8,38.7,30.06,North,350,0.0,0.0,68,0.00,,,0.00,LWC V1.00 B64,2013-02-10 01:41:00,
2013-02-09 17:46:00,48.4,39.4,30.07,North,351,0.0,0.0,71,0.00,,,0.00,LWC V1.00 B64,2013-02-10 01:46:00,
2013-02-09 17:51:00,47.8,39.2,30.07,North,351,0.0,0.0,72,0.00,,,0.00,LWC V1.00 B64,2013-02-10 01:51:00,
2013-02-09 17:56:00,47.3,39.1,30.07,North,350,0.0,0.0,73,0.00,,,0.00,LWC V1.00 B64,2013-02-10 01:56:00,
2013-02-09 18:01:00,46.9,39.1,30.07,North,351,0.0,0.0,74,0.00,,,0.00,LWC V1.00 B64,2013-02-10 02:01:00,
2013-02-09 18:06:00,46.3,38.5,30.08,North,351,0.0,0.0,74,0.00,,,0.00,LWC V1.00 B64,2013-02-10 02:06:00,
2013-02-09 18:11:00,45.7,38.2,30.07,North,351,0.0,0.0,75,0.00,,,0.00,LWC V1.00 B64,2013-02-10 02:11:00,
2013-02-09 18:16:00,45.1,37.7,30.08,North,350,0.0,0.0,75,0.00,,,0.00,LWC V1.00 B64,2013-02-10 02:16:00,
2013-02-09 18:21:00,44.4,37.3,30.07,North,351,0.0,0.0,76,0.00,,,0.00,LWC V1.00 B64,2013-02-10 02:21:00,
2013-02-09 18:26:00,43.9,36.8,30.07,North,351,0.0,0.0,76,0.00,,,0.00,LWC V1.00 B64,2013-02-10 02:26:00,
2013-02-09 18:31:00,43.5,36.8,30.08,North,350,0.0,0.0,77,0.00,,,0.00,LWC V1.00 B64,2013-02-10 02:31:00,
2013-02-09 18:36:00,43.2,36.5,30.08,North,350,0.0,0.0,77,0.00,,,0.00,LWC V1.00 B64,2013-02-10 02:36:00,
2013-02-09 18:42:00,42.8,36.4,30.08,North,351,0.0,0.0,78,0.00,,,0.00,LWC V1.00 B64,2013-02-10 02:42:00,
2013-02-09 18:47:00,42.5,36.5,30.07,North,351,0.0,0.0,79,0.00,,,0.00,LWC V1.00 B64,2013-02-10 02:47:00,
2013-02-09 18:52:00,42.2,36.5,30.08,North,351,0.0,0.0,80,0.00,,,0.00,LWC V1.00 B64,2013-02-10 02:52:00,
2013-02-09 18:57:00,42.1,36.7,30.08,North,355,0.0,0.0,81,0.00,,,0.00,LWC V1.00 B64,2013-02-10 02:57:00,
2013-02-09 19:02:00,42.0,36.6,30.08,North,355,0.0,1.0,81,0.00,,,0.00,LWC V1.00 B64,2013-02-10 03:02:00,
2013-02-09 19:07:00,41.8,36.7,30.08,North,355,0.0,1.0,82,0.00,,,0.00,LWC V1.00 B64,2013-02-10 03:07:00,
2013-02-09 19:12:00,41.6,36.5,30.08,North,355,0.0,0.0,82,0.00,,,0.00,LWC V1.00 B64,2013-02-10 03:12:00,
2013-02-09 19:17:00,41.4,36.6,30.09,North,355,0.0,0.0,83,0.00,,,0.00,LWC V1.00 B64,2013-02-10 03:17:00,
2013-02-09 19:22:00,41.2,36.1,30.09,North,355,0.0,0.0,82,0.00,,,0.00,LWC V1.00 B64,2013-02-10 03:22:00,
2013-02-09 19:28:00,40.9,36.1,30.09,North,355,0.0,0.0,83,0.00,,,0.00,LWC V1.00 B64,2013-02-10 03:28:00,
2013-02-09 19:33:00,40.6,35.8,30.09,North,355,0.0,0.0,83,0.00,,,0.00,LWC V1.00 B64,2013-02-10 03:33:00,
2013-02-09 19:38:00,40.2,35.5,30.09,North,355,0.0,0.0,83,0.00,,,0.00,LWC V1.00 B64,2013-02-10 03:38:00,
2013-02-09 19:43:00,39.9,35.5,30.09,North,355,0.0,0.0,84,0.00,,,0.00,LWC V1.00 B64,2013-02-10 03:43:00,
2013-02-09 19:48:00,39.6,35.2,30.09,North,355,0.0,0.0,84,0.00,,,0.00,LWC V1.00 B64,2013-02-10 03:48:00,
2013-02-09 19:53:00,39.3,34.9,30.09,North,355,0.0,0.0,84,0.00,,,0.00,LWC V1.00 B64,2013-02-10 03:53:00,
2013-02-09 19:58:00,39.0,34.6,30.09,North,355,0.0,0.0,84,0.00,,,0.00,LWC V1.00 B64,2013-02-10 03:58:00,
2013-02-09 20:04:00,38.8,34.7,30.09,North,355,0.0,0.0,85,0.00,,,0.00,LWC V1.00 B64,2013-02-10 04:04:00,
2013-02-09 20:09:00,38.5,34.4,30.10,North,355,0.0,0.0,85,0.00,,,0.00,LWC V1.00 B64,2013-02-10 04:09:00,
2013-02-09 20:14:00,38.3,34.5,30.10,North,355,0.0,0.0,86,0.00,,,0.00,LWC V1.00 B64,2013-02-10 04:14:00,
2013-02-09 20:19:00,38.2,34.4,30.10,North,355,0.0,0.0,86,0.00,,,0.00,LWC V1.00 B64,2013-02-10 04:19:00,
2013-02-09 20:24:00,38.0,34.5,30.10,North,355,0.0,0.0,87,0.00,,,0.00,LWC V1.00 B64,2013-02-10 04:24:00,
2013-02-09 20:29:00,37.9,34.4,30.10,North,355,0.0,0.0,87,0.00,,,0.00,LWC V1.00 B64,2013-02-10 04:29:00,
2013-02-09 20:34:00,37.8,34.6,30.10,North,355,0.0,0.0,88,0.00,,,0.00,LWC V1.00 B64,2013-02-10 04:34:00,
2013-02-09 20:40:00,37.7,34.5,30.10,North,355,0.0,0.0,88,0.00,,,0.00,LWC V1.00 B64,2013-02-10 04:40:00,
2013-02-09 20:45:00,37.7,34.5,30.10,North,355,0.0,0.0,88,0.00,,,0.00,LWC V1.00 B64,2013-02-10 04:45:00,
2013-02-09 20:51:00,37.8,34.6,30.10,North,355,0.0,0.0,88,0.00,,,0.00,LWC V1.00 B64,2013-02-10 04:51:00,
2013-02-09 20:56:00,37.7,34.5,30.10,North,355,0.0,0.0,88,0.00,,,0.00,LWC V1.00 B64,2013-02-10 04:56:00,
2013-02-09 21:00:00,37.5,34.3,30.10,North,355,0.0,0.0,88,0.00,,,0.00,LWC V1.00 B64,2013-02-10 05:00:00,
2013-02-09 21:01:00,37.4,34.2,30.10,North,355,0.0,0.0,88,0.00,,,0.00,LWC V1.00 B64,2013-02-10 05:01:00,
2013-02-09 21:06:00,37.2,34.0,30.10,North,355,0.0,0.0,88,0.00,,,0.00,LWC V1.00 B64,2013-02-10 05:06:00,
2013-02-09 21:12:00,37.1,34.2,30.09,North,355,0.0,0.0,89,0.00,,,0.00,LWC V1.00 B64,2013-02-10 05:12:00,
2013-02-09 21:17:00,37.0,34.1,30.10,North,355,0.0,0.0,89,0.00,,,0.00,LWC V1.00 B64,2013-02-10 05:17:00,
2013-02-09 21:22:00,36.8,33.9,30.10,North,355,0.0,0.0,89,0.00,,,0.00,LWC V1.00 B64,2013-02-10 05:22:00,
2013-02-09 21:27:00,36.6,33.7,30.10,North,355,0.0,0.0,89,0.00,,,0.00,LWC V1.00 B64,2013-02-10 05:27:00,
2013-02-09 21:32:00,36.3,33.4,30.10,North,355,0.0,0.0,89,0.00,,,0.00,LWC V1.00 B64,2013-02-10 05:32:00,
2013-02-09 21:37:00,36.1,33.2,30.10,North,355,0.0,0.0,89,0.00,,,0.00,LWC V1.00 B64,2013-02-10 05:37:00,
2013-02-09 21:42:00,35.9,33.3,30.10,North,355,0.0,0.0,90,0.00,,,0.00,LWC V1.00 B64,2013-02-10 05:42:00,
2013-02-09 21:46:00,35.9,33.3,30.10,North,355,0.0,0.0,90,0.00,,,0.00,LWC V1.00 B64,2013-02-10 05:46:00,
2013-02-09 21:51:00,35.8,33.2,30.10,North,355,0.0,0.0,90,0.00,,,0.00,LWC V1.00 B64,2013-02-10 05:51:00,
2013-02-09 21:52:00,35.8,33.4,30.10,North,355,0.0,0.0,91,0.00,,,0.00,LWC V1.00 B64,2013-02-10 05:52:00,
2013-02-09 21:57:00,35.7,33.3,30.10,North,355,0.0,0.0,91,0.00,,,0.00,LWC V1.00 B64,2013-02-10 05:57:00,
2013-02-09 22:02:00,35.6,33.2,30.10,North,355,0.0,0.0,91,0.00,,,0.00,LWC V1.00 B64,2013-02-10 06:02:00,
2013-02-09 22:07:00,35.5,33.1,30.11,North,355,0.0,0.0,91,0.00,,,0.00,LWC V1.00 B64,2013-02-10 06:07:00,
2013-02-09 22:12:00,35.3,32.9,30.10,North,355,0.0,0.0,91,0.00,,,0.00,LWC V1.00 B64,2013-02-10 06:12:00,
2013-02-09 22:17:00,35.1,32.7,30.10,North,355,0.0,0.0,91,0.00,,,0.00,LWC V1.00 B64,2013-02-10 06:17:00,
2013-02-09 22:22:00,35.0,32.6,30.10,North,355,0.0,0.0,91,0.00,,,0.00,LWC V1.00 B64,2013-02-10 06:22:00,
2013-02-09 22:27:00,35.0,32.6,30.10,North,355,0.0,0.0,91,0.00,,,0.00,LWC V1.00 B64,2013-02-10 06:27:00,
2013-02-09 22:32:00,34.9,32.8,30.10,North,355,0.0,0.0,92,0.00,,,0.00,LWC V1.00 B64,2013-02-10 06:32:00,
2013-02-09 22:37:00,34.8,32.7,30.10,North,355,0.0,1.0,92,0.00,,,0.00,LWC V1.00 B64,2013-02-10 06:37:00,
2013-02-09 22:42:00,34.8,32.7,30.11,North,355,0.0,0.0,92,0.00,,,0.00,LWC V1.00 B64,2013-02-10 06:42:00,
2013-02-09 22:47:00,34.7,32.6,30.10,North,355,0.0,0.0,92,0.00,,,0.00,LWC V1.00 B64,2013-02-10 06:47:00,
2013-02-09 22:52:00,34.5,32.4,30.10,North,355,0.0,0.0,92,0.00,,,0.00,LWC V1.00 B64,2013-02-10 06:52:00,
2013-02-09 22:57:00,34.3,32.2,30.10,North,355,0.0,0.0,92,0.00,,,0.00,LWC V1.00 B64,2013-02-10 06:57:00,
2013-02-09 23:02:00,34.3,32.5,30.10,North,355,0.0,0.0,93,0.00,,,0.00,LWC V1.00 B64,2013-02-10 07:02:00,
2013-02-09 23:07:00,34.4,32.6,30.10,North,355,0.0,0.0,93,0.00,,,0.00,LWC V1.00 B64,2013-02-10 07:07:00,
2013-02-09 23:12:00,34.3,32.5,30.10,North,355,0.0,0.0,93,0.00,,,0.00,LWC V1.00 B64,2013-02-10 07:12:00,
2013-02-09 23:18:00,34.0,31.9,30.10,North,355,0.0,0.0,92,0.00,,,0.00,LWC V1.00 B64,2013-02-10 07:18:00,
2013-02-09 23:23:00,33.9,32.1,30.10,North,355,0.0,0.0,93,0.00,,,0.00,LWC V1.00 B64,2013-02-10 07:23:00,
2013-02-09 23:28:00,33.9,32.1,30.11,North,355,0.0,0.0,93,0.00,,,0.00,LWC V1.00 B64,2013-02-10 07:28:00,
2013-02-09 23:33:00,33.8,32.0,30.11,North,355,0.0,0.0,93,0.00,,,0.00,LWC V1.00 B64,2013-02-10 07:33:00,
2013-02-09 23:38:00,33.6,31.8,30.11,North,355,0.0,1.0,93,0.00,,,0.00,LWC V1.00 B64,2013-02-10 07:38:00,
2013-02-09 23:43:00,33.4,31.6,30.11,North,355,0.0,1.0,93,0.00,,,0.00,LWC V1.00 B64,2013-02-10 07:43:00,
2013-02-09 23:48:00,33.6,31.8,30.12,North,355,0.0,0.0,93,0.00,,,0.00,LWC V1.00 B64,2013-02-10 07:48:00,
2013-02-09 23:53:00,33.6,31.8,30.12,North,355,0.0,0.0,93,0.00,,,0.00,LWC V1.00 B64,2013-02-10 07:53:00,
2013-02-09 23:58:00,33.6,31.8,30.12,North,355,0.0,0.0,93,0.00,,,0.00,LWC V1.00 B64,2013-02-10 07:58:00,